Route Details

Aircraft Information
Group: North America Fleet
Types: B738, B752, B762, B763
Route Data
Distance: 1017nm
Duration: 3h 20m
Origin METAR: KAFW 072321Z 01014KT 3SM -DZ BR OVC005 08/08 A3006 RMK AO2 SFC VIS 3 CIG 004V010 P0000 T00830078
Dest. METAR: KONT 072253Z VRB04KT 10SM FEW250 20/M02 A3020 RMK AO2 SLP221 T02001022
Freight Data
(for Feb 7, 2023)
Load Factor:
57%
Manifested Cargo: 59,156lbs
Financial History
Total Freight: 216,202lbs
Average Load: 0lbs/flt
Fuel Used: 100,752lbs
Avg. Fuel Used: 0lbs/flt
Fuel Expense: $51,818
Avg. Fuel Expense: $0
Avg. Fuel Cost: $0/lbs
Total Gross Income: $551,315
Pilot Pay: $667
Total Expenses: $109,919
Total Revenue: $387,303
Average Revenue: $0

Capitol Logistics 413




KAFW
Fort Worth Alliance Airport
Fort Worth, Texas
KONT
Ontario International Airport
Ontario, California

Activity Log

Date Flight Route Aircraft Duration
07/23/2022 CPX413 SWABR1 HULZE DCT TXO J72 ABQ J78 DRK DCT DAFNY SCBBY2 B763 2h 47m
07/09/2022 CPX413 SWABR1 HULZE DCT TXO J72 ABQ J78 DRK DCT DAFNY SCBBY2 B763 2h 41m
07/05/2022 CPX7496 SWABR1 HULZE DCT TXO J72 ABQ J78 DRK DCT DAFNY SCBBY2 B763 2h 58m